Regional Weather Roundup
Issued by NWS

Home | Current Version | Previous Version | Graphics & Text | Print | Product List | Glossary Off
Versions: 1 2 3 4 5 6 7 8 9 10 11 12 13 14 15 16 17 18 19 20 21 22 23 24 25 26 27 28 29 30 31 32 33 34 35 36 37 38 39 40 41 42 43 44 45 46 47 48 49 50

000
ASUS43 KDMX 020507
RWRIA

WEATHER ROUNDUP FOR IOWA
NATIONAL WEATHER SERVICE DES MOINES IA
1200 AM CDT THU APR 02 2015

NOTE: "FAIR" INDICATES FEW OR NO CLOUDS BELOW 12,000 FEET WITH NO
SIGNIFICANT WEATHER AND/OR OBSTRUCTIONS TO VISIBILITY.

* - THESE STATIONS ARE NOT NWS STATIONS...THUS NOT UNDER NWS
QUALITY CONTROL.  THEY ALSO DO NOT REPORT WEATHER SUCH
AS PRECIPITATION OR FOG.

IAZ001>003-012>014-020>022-031>034-043>046-020600-
   NORTHWEST IOWA

CITY           SKY/WX    TMP DP  RH WIND       PRES   REMARKS
CARROLL *      LGT RAIN  57  54  88 N5        29.65F
CHEROKEE *     CLOUDY    54  54 100 N5        29.69R
DENISON *      CLOUDY    55  55 100 CALM      29.68R FOG
LE MARS *      CLOUDY    55  45  67 NW12      29.72R
ORANGE CITY *  CLEAR     57  45  62 N8        29.72R
SHELDON *      MOCLDY    52  46  82 NW6       29.71R
SIOUX CITY     CLOUDY    59  45  59 NW14      29.72R
SPENCER          N/A     52  49  89 SW6       29.72R
STORM LAKE *   LGT RAIN  55  52  88 NW7       29.69R
$$

IAZ055>058-069>071-079>083-090>094-020600-
   SOUTHWEST IOWA

CITY           SKY/WX    TMP DP  RH WIND       PRES   REMARKS
ATLANTIC *     RAIN      61  52  72 NW20G25   29.68R
AUDUBON *      HVY RAIN  57  52  82 NW5       29.70R
CLARINDA *     CLEAR     61  55  82 S15       29.62S
COUNCIL BLFS * LGT RAIN  55  55 100 N8        29.71R
CRESTON *      CLEAR     59  55  88 S20       29.63F
HARLAN  *      LGT RAIN  55  55 100 NW9       29.73R
LAMONI         MOCLDY    59  54  83 S12       29.66S
RED OAK *      CLOUDY    64  54  68 NW20      29.72R
SHENANDOAH *   LGT RAIN  64  55  72 W28G33    29.69R
$$

IAZ047>049-059>061-072>074-084-020600-
   CENTRAL IOWA

CITY           SKY/WX    TMP DP  RH WIND       PRES   REMARKS
AMES           CLOUDY    61  50  67 W9        29.68R
ANKENY *       CLEAR     63  52  67 S16G23    29.64S
CHARITON *     PTCLDY    59  54  82 S21G29    29.66S
DES MOINES     CLOUDY    63  51  65 S18G25    29.64S
GRINNELL*      PTCLDY    61  50  67 S14G20    29.66F
KNOXVILLE *    CLEAR     61  52  72 S21G28    29.64S
MARSHALLTOWN   CLOUDY    62  51  67 S13       29.63F
PELLA *        MOCLDY    61  55  80 S24G31    29.66F
PERRY *        CLOUDY    64  52  63 W15G22    29.67R
$$

IAZ004>006-015-016-023>025-035-036-020600-
   NORTH CENTRAL IOWA

CITY           SKY/WX    TMP DP  RH WIND       PRES   REMARKS
ALGONA *       LGT RAIN  57  57 100 SW14G24   29.70R
CLARION *      LGT RAIN  57  57 100 CALM      29.70R
ESTHERVILLE    CLOUDY    53  50  89 SE3       29.69R
FORT DODGE *   CLOUDY    55  52  88 CALM      29.66F
MASON CITY     LGT RAIN  57  55  93 S8        29.69S
FOREST CITY *  LGT RAIN  54  54 100 S10       29.68R
IOWA FALLS *   CLOUDY    64  50  59 W14       29.72R
$$

IAZ007>011-017>019-026>030-037>042-050>054-066-020600-
   NORTHEAST IOWA

CITY           SKY/WX    TMP DP  RH WIND       PRES   REMARKS
CEDAR RAPIDS   CLEAR     58  42  55 S13       29.69R
CHARLES CITY * CLOUDY    63  50  63 W13G22    29.71R
CLINTON *      CLEAR     61  37  41 S16G23    29.75S
DECORAH *      MOCLDY    61  43  51 SW12G17   29.66R
DUBUQUE        CLEAR     56  38  50 S16       29.71S
MONTICELLO *   CLEAR     55  39  54 SE8       29.70S
OELWEIN *      CLEAR     55  41  58 S13       29.67F
WATERLOO       MOCLDY    64  50  60 S15G26    29.64F
$$

IAZ064-065-067-068-078-020600-
   EAST CENTRAL IOWA

CITY           SKY/WX    TMP DP  RH WIND       PRES   REMARKS
DAVENPORT      CLEAR     63  37  38 S21G29    29.73S
IOWA CITY      CLEAR     60  43  53 S12       29.71S
MT. PLEASANT * CLEAR     61  48  63 S15G21    29.71F
MUSCATINE *    CLEAR     61  41  48 S12       29.71F
QUAD CITIES    PTCLDY    63  38  39 S16G23    29.72F
$$

IAZ062-063-075>077-085>089-095>099-020600-
   SOUTHEAST IOWA

CITY           SKY/WX    TMP DP  RH WIND       PRES   REMARKS
BURLINGTON     PTCLDY    60  46  59 S10       29.71F
FAIRFIELD *    CLEAR     61  52  72 S14G23    29.70S
FORT MADISON * CLEAR     61  48  63 S13       29.73F
KEOKUK *       CLEAR     64  52  63 S16G23    29.72F
OSKALOOSA *      N/A     59  50  72 S17G24    29.68F
CENTERVILLE *  PTCLDY    59  55  88 S14G23    29.70S
OTTUMWA        CLEAR     60  52  74 S20G28    29.68F
WASHINGTON *   CLEAR     63  54  72 S17       29.69F
$$

ABBREVIATIONS USED IN REMARKS
   TC - TEMPERATURES IN CELSIUS
  WCI - WIND CHILL INDEX
   HX - HEAT INDEX
  VSB - VISIBILITY
$$



USA.gov is the U.S. government's official web portal to all federal, state and local government web resources and services.